Milk River, Alberta

5:16 PM MST on December 17, 2017 (GMT -0700)
Milk River

Weather History for 71244 - December, 2013

Change the Weather History Date:

Tuesday, December 17, 2013

  Actual Average Record
Temperature  
Mean Temperature 28 °F -  
Max Temperature 48 °F - - ()
Min Temperature 9 °F - - ()
Degree Days  
Heating Degree Days 36    
Moisture  
Dew Point 23 °F    
Average Humidity 60    
Maximum Humidity 87    
Minimum Humidity 27    
Precipitation  
Precipitation 0.50 in - - ()
Sea Level Pressure  
Sea Level Pressure 29.92 in    
Wind  
Wind Speed 10 mph ()    
Max Wind Speed 29 mph    
Max Gust Speed 37 mph    
T = Trace of Precipitation, MM = Missing Value Source: Averaged Metar Reports

Daily Weather History Graph

Daily Weather History Graph

Search for Another Location

Airport or City:

Trip Planner

Search our weather history database for the weather conditions in past years. The results will help you decide how hot, cold, wet, or windy it might be!

Date:

Astronomy

Dec. 17, 2013 Rise Set
Actual Time 8:17 AM MST 4:31 PM MST
Civil Twilight 7:40 AM MST 5:08 PM MST
Nautical Twilight 6:59 AM MST 5:49 PM MST
Astronomical Twilight 6:20 AM MST 6:28 PM MST
Moon 5:19 PM MST (12/17) 8:11 AM MST (12/17)
Length of Visible Light 9h 28m
Length of Day
8h 13m
Full, 100% of the Moon is Illuminated
Dec 17
Full
Dec 25
Last Quarter
Jan 1
New
Jan 7
First Quarter
Jan 15
Full

Hourly Weather History & Observations

Time (MST) Temp. Windchill Dew Point Humidity Pressure Visibility Wind Dir Wind Speed Gust Speed Precip Events Conditions
12:00 AM 17.1 °F 6.6 °F 13.6 °F 86% 30.26 in - SSW 8.1 mph - N/A   Unknown
1:00 AM 19.8 °F 9.1 °F 15.1 °F 82% 30.22 in - South 9.2 mph - N/A   Unknown
2:00 AM 19.6 °F 13.0 °F 16.2 °F 87% 30.21 in - South 4.6 mph - N/A   Unknown
3:00 AM 23.2 °F 13.3 °F 19.6 °F 86% 30.18 in - South 9.2 mph - N/A   Unknown
4:00 AM 24.6 °F 15.8 °F 21.0 °F 86% 30.14 in - SSW 8.1 mph - N/A   Unknown
5:00 AM 26 °F - 23 °F 83% 30.12 in - South 4.6 mph - -  
5:00 AM 26.4 °F 20.9 °F 22.8 °F 86% 30.12 in - South 4.6 mph - N/A   Unknown
6:00 AM 33.1 °F 25.5 °F 25.2 °F 73% 30.07 in - SSW 9.2 mph - N/A   Unknown
7:00 AM 33.6 °F 26.8 °F 24.3 °F 69% 30.04 in - SSW 8.1 mph - N/A   Unknown
8:00 AM 30.7 °F 22.6 °F 23.7 °F 75% 30.02 in - SSW 9.2 mph - N/A   Unknown
9:00 AM 33.4 °F 27.3 °F 24.8 °F 71% 29.97 in - SE 6.9 mph - N/A   Unknown
10:00 AM 42.6 °F 34.9 °F 25.9 °F 52% 29.92 in - WSW 16.1 mph 24.2 mph N/A   Unknown
11:00 AM 45 °F - 25 °F 32% 29.88 in - WSW 17.3 mph - -  
11:00 AM 44.6 °F 37.2 °F 25.0 °F 46% 29.88 in - WSW 17.3 mph - N/A   Unknown
12:00 PM 45.5 °F 37.1 °F 24.8 °F 44% 29.84 in - West 23.0 mph 28.8 mph N/A   Unknown
1:00 PM 46.4 °F 39.2 °F 25.3 °F 44% 29.82 in - West 18.4 mph 25.3 mph N/A   Unknown
2:00 PM 43.7 °F 36.3 °F 25.2 °F 48% 29.82 in - WNW 16.1 mph - N/A   Unknown
3:00 PM 45.0 °F 39.7 °F 24.4 °F 45% 29.81 in - WNW 10.4 mph - N/A   Unknown
4:00 PM 45.1 °F 39.5 °F 24.4 °F 44% 29.81 in - West 11.5 mph - N/A   Unknown
5:00 PM 45 °F - 22 °F 27% 29.81 in - West 5.8 mph - -  
5:00 PM 45.3 °F 42.3 °F 21.7 °F 39% 29.81 in - West 5.8 mph - N/A   Unknown
6:00 PM 39.0 °F 33.4 °F 25.3 °F 58% 29.79 in - WNW 8.1 mph - N/A   Unknown
7:00 PM 40.3 °F 34.4 °F 24.3 °F 53% 29.76 in - WNW 9.2 mph - N/A   Unknown
8:00 PM 35.1 °F 29.3 °F 24.3 °F 65% 29.77 in - WSW 6.9 mph - N/A   Unknown
9:00 PM 38.5 °F 31.6 °F 25.3 °F 59% 29.73 in - West 10.4 mph 17.3 mph N/A   Unknown
10:00 PM 40.8 °F 30.9 °F 26.4 °F 57% 29.66 in - West 23.0 mph 28.8 mph N/A   Unknown
11:00 PM 41 °F - 26 °F 42% 29.65 in - West 28.8 mph - -  
11:00 PM 41.4 °F 30.5 °F 25.7 °F 54% 29.65 in - West 28.8 mph 36.8 mph N/A   Unknown